sat.trackr.live / text

‹ back to catalog

STARLINK-33896

NORAD 63861 · 2025-093AB

PAYLOAD ACTIVE UNKNOWN

§ Identity

Operator
Country
US
Launch date
2025-05-07
Launch site
AFETR
Launch vehicle
Mass (kg)
RCS (m²)

Purposes: comms

External: N2YO · Heavens-Above · Gunter

§ Orbital elements

Epoch: 2026-05-25T00:23:12.266016Z

Period
94.27 min
Inclination
43.0032°
Eccentricity
0.0001415
Mean motion
15.27588586 rev/d
Perigee alt
482.1 km
Apogee alt
484.0 km
Semi-major
6,861.2 km
B*
5.5517e-4
RAAN
6.9748°
Arg perigee
265.9370°
Mean anomaly
94.1320°
Rev number
5,942

§ Raw data

STARLINK-338961 63861U 25093AB  26145.01611419  .00015050  00000+0  55517-3 0  99902 63861  43.0032   6.9748 0001415 265.9370  94.1320 15.27588586 59429

JSON: /api/v1/satellites/63861 · /tle

For live sub-satellite position, see the globe view (requires WebGL).

§ Visibility from observer

Set your observer location to see the next 7 days of passes ≥ 10°. The values pass through the URL so the page stays shareable.

No JS? Fill the form by hand. The geolocation button needs JavaScript.